This is the latest recevied weather packets stored in our database for station/object KD0SBN-3. If no packets are shown the sender has not sent any weather packets the latest 10 day(s).
| Time | Temp. | Humidity | Pressure | Rain* | Wind** | Luminosity | Snow |
|---|---|---|---|---|---|---|---|
| 1777984445 | 2.22° C | 81% | 1020 hPa | 0 mm | - | 23 W/m² | - |
| 1777984140 | 2.22° C | 81% | 1019.9 hPa | 0 mm | - | 17 W/m² | - |
| 1777983838 | 2.22° C | 80% | 1020 hPa | 0 mm | - | 19 W/m² | - |
| 1777983534 | 2.78° C | 80% | 1020 hPa | 0 mm | - | 9 W/m² | - |
| 1777983231 | 2.22° C | 81% | 1020.2 hPa | 0 mm | - | 6 W/m² | - |
| 1777982927 | 2.22° C | 80% | 1019.9 hPa | 0 mm | - | 4 W/m² | - |
| 1777982624 | 2.22° C | 80% | 1019.9 hPa | 0 mm | - | 3 W/m² | - |
| 1777982322 | 2.78° C | 80% | 1019.6 hPa | 0 mm | - | 2 W/m² | - |
| 1777982020 | 2.22° C | 81% | 1020 hPa | 0 mm | - | 1 W/m² | - |
| 1777981718 | 2.78° C | 81% | 1019.6 hPa | 0 mm | - | 0 W/m² | - |
| 1777981414 | 2.78° C | 81% | 1019.8 hPa | 0 mm | - | 0 W/m² | - |
| 1777981110 | 2.22° C | 82% | 1019.9 hPa | 0 mm | - | 0 W/m² | - |
| 1777980807 | 1.67° C | 84% | 1019.8 hPa | 0 mm | - | 0 W/m² | - |
| 1777980503 | 2.22° C | 83% | 1019.9 hPa | 0 mm | - | 0 W/m² | - |
| 1777980200 | 2.22° C | 84% | 1019.6 hPa | 0 mm | - | 0 W/m² | - |
| 1777979896 | 1.67° C | 84% | 1019.5 hPa | 0 mm | - | 0 W/m² | - |
| 1777979591 | 1.67° C | 85% | 1019.8 hPa | 0 mm | - | 0 W/m² | - |
| 1777979288 | 1.67° C | 85% | 1019.8 hPa | 0 mm | - | 0 W/m² | - |
| 1777978986 | 1.67° C | 85% | 1019.9 hPa | 0 mm | - | 0 W/m² | - |
| 1777978682 | 1.67° C | 84% | 1019.8 hPa | 0 mm | - | 0 W/m² | - |
| 1777978377 | 1.67° C | 84% | 1019.6 hPa | 0 mm | - | 0 W/m² | - |
| 1777978074 | 1.67° C | 85% | 1019.4 hPa | 0 mm | - | 0 W/m² | - |
| 1777977772 | 1.67° C | 85% | 1019.5 hPa | 0 mm | - | 0 W/m² | - |
| 1777977468 | 1.67° C | 84% | 1019.6 hPa | 0 mm | - | 0 W/m² | - |
| 1777977166 | 1.67° C | 85% | 1019.6 hPa | 0 mm | - | 0 W/m² | - |
* Rain latest hour (hover to see other rain measurements)
** Current wind speed in m/s (hover to see current wind gust speed)